Wind_Speed
2 2 4 4 4 4 4 4 4 4 4 4 4 4 4 4 4 4 4 4 3 4 3 3 3 4 4 4 4 5 5 5 5 5 5 5 6 6 5 4 4 4 4 3 3 3 3 4 4
3 3 3 3 3 3 4 5 5 4 4 4 4 4 4 4 4 4 4 4 4 4 4 4 4 4 4 4 4 5 6 6 6 6 6 6 7 7 7 6 6 5 5 4 4 4 4 4 5
3 3 3 3 3 4 5 5 5 5 5 5 5 5 4 4 5 5 4 4 4 4 4 4 5 5 5 4 4 5 5 5 5 5 5 5 7 8 8 7 7 7 7 6 5 5 5 5 6
4 4 4 4 4 5 6 6 6 6 6 6 6 6 5 5 5 6 5 5 5 5 5 5 5 5 5 5 5 5 5 6 5 5 6 6 6 7 8 7 7 8 8 7 7 7 7 7 7
5 5 5 5 5 6 6 6 6 6 7 7 6 6 6 6 6 6 6 6 6 5 5 5 5 5 5 5 5 6 6 6 6 5 6 6 7 8 8 8 9 9 9 8 8 8 8 7 8
6 6 6 6 6 7 8 7 8 8 7 8 7 7 7 7 7 7 7 7 6 6 6 6 6 6 6 5 5 5 6 6 5 5 6 7 7 8 8 8 9 10 9 9 9 8 8 8 9
7 8 7 7 7 7 8 8 8 9 8 8 9 9 8 8 8 8 8 7 7 7 7 6 6 6 6 7 6 5 6 6 6 6 6 7 8 8 8 8 9 9 9 9 9 9 9 9 9
8 8 8 8 8 8 8 8 8 9 9 9 9 10 9 9 9 9 8 8 8 8 8 7 7 7 7 7 7 7 7 7 6 6 7 7 8 8 8 8 9 9 9 8 9 9 9 10 10
9 9 9 9 9 9 9 9 9 9 9 9 9 10 10 10 10 9 9 9 8 9 9 9 8 8 8 8 8 8 7 7 7 8 8 8 8 8 9 9 9 9 9 9 9 9 10 10 10
10 10 10 10 9 9 9 9 9 9 9 10 10 10 10 10 10 10 9 9 9 9 9 9 9 9 9 9 9 9 8 8 8 9 9 9 9 9 9 9 9 9 9 10 10 10 10 10 11
10 9 9 10 9 10 10 10 10 10 10 10 10 11 11 11 11 11 10 10 10 10 10 10 10 9 9 9 9 10 9 9 9 9 10 9 9 9 10 10 10 10 10 10 11 11 11 11 12
10 10 10 10 10 10 10 10 10 10 10 10 10 11 11 11 11 11 11 11 11 11 11 11 11 10 10 10 10 10 10 9 9 9 10 10 10 10 10 10 10 10 11 11 11 12 12 12 12
11 10 11 10 10 10 10 11 10 11 10 10 10 10 10 11 11 11 11 11 12 12 11 11 11 11 11 11 11 11 11 11 10 10 10 10 10 10 11 11 11 11 11 11 12 12 12 11 11
11 11 11 11 10 10 10 10 10 10 10 10 9 9 10 10 10 10 10 11 12 12 12 12 12 12 11 11 10 11 11 11 11 11 11 11 10 10 11 11 11 11 11 11 11 11 10 11 11
12 12 12 11 11 11 10 10 10 10 10 10 10 9 9 9 10 10 10 10 11 11 11 12 12 11 11 11 10 10 11 11 11 12 12 12 11 11 11 11 11 12 11 10 10 10 10 10 11
11 12 12 12 12 11 11 11 10 11 11 10 10 9 9 9 10 10 10 10 10 11 12 12 12 11 11 11 11 11 12 12 12 13 13 12 12 12 12 12 11 11 10 9 9 10 10 10 11
11 11 11 11 12 12 12 12 12 12 11 11 10 10 10 10 10 11 10 11 11 11 11 12 12 12 13 13 13 13 13 13 13 13 13 13 13 13 12 12 11 11 10 10 10 10 10 10 11
11 11 11 12 12 12 13 12 12 12 12 12 12 11 11 11 11 11 11 11 11 11 11 12 12 12 13 14 14 14 13 13 13 13 13 13 13 13 13 12 12 11 11 11 11 11 12 12 12
10 11 11 11 12 12 13 13 12 13 13 13 12 12 12 11 12 12 12 12 12 12 12 13 13 13 13 14 14 14 14 14 14 14 14 14 13 13 13 13 13 12 12 12 12 12 13 13 13
11 11 11 12 12 12 12 12 13 14 14 14 13 13 13 12 12 13 13 13 13 13 13 13 14 14 14 14 15 15 15 16 15 15 15 15 15 14 14 14 13 14 14 14 14 14 14 14 14
11 11 11 12 12 12 12 12 13 14 14 14 13 13 13 12 12 12 13 13 14 14 14 14 15 14 14 15 15 15 15 16 16 17 16 16 16 15 14 14 14 14 15 15 15 15 15 15 14
10 11 11 12 12 13 13 13 14 14 14 14 13 13 13 12 12 13 13 14 14 14 15 15 16 16 16 16 16 17 17 17 17 18 18 18 17 16 16 16 16 16 16 16 16 16 16 16 15
10 10 11 12 12 13 13 14 14 15 15 14 14 13 13 13 13 13 14 14 15 15 15 16 16 17 17 18 18 18 18 18 18 18 19 18 18 18 17 17 17 17 17 17 17 17 17 16 16
10 10 11 11 12 14 14 15 14 15 15 14 14 14 14 14 14 15 15 15 16 16 16 16 16 17 17 17 18 18 18 18 18 18 18 18 18 18 18 17 17 17 17 18 18 18 18 17 17
10 10 10 11 12 14 14 15 15 15 15 15 15 15 16 15 15 16 16 16 17 18 17 18 17 17 17 17 18 19 19 19 19 19 18 19 18 18 18 18 18 18 17 18 18 18 18 18 18
10 10 10 12 13 13 14 14 14 14 14 15 15 16 16 17 17 17 17 18 18 18 19 19 19 19 18 18 18 19 19 19 19 20 20 19 19 19 19 19 20 20 19 19 19 19 19 19 19
10 10 10 12 13 13 14 14 13 13 14 15 16 17 17 18 18 18 18 18 18 19 19 19 19 19 19 19 19 19 19 20 20 20 20 20 20 20 20 20 20 20 20 20 20 20 20 20 20
10 10 10 11 13 13 14 14 14 14 14 15 16 17 18 18 18 18 18 19 19 19 19 19 19 19 19 19 20 20 20 20 21 21 20 20 20 20 21 21 21 21 20 20 20 21 21 21 21
11 10 11 13 14 14 15 15 15 14 14 14 16 16 17 17 18 18 19 19 19 19 19 20 20 20 20 20 21 21 21 21 21 22 22 21 21 21 21 21 21 21 21 21 21 22 22 22 22
12 11 12 13 15 16 16 16 15 15 15 15 16 16 16 17 18 19 19 20 20 19 20 20 21 21 21 22 22 22 22 22 22 22 22 21 21 22 22 22 22 22 21 21 22 22 23 23 23
Wind_Direction
182 176 177 179 186 192 200 204 203 206 209 205 202 203 201 200 196 202 199 198 207 217 220 227 236 246 243 242 242 242 247 252 252 251 248 238 232 226 217 217 218 211 216 220 218 221 209 209 215
197 186 186 188 194 205 215 218 215 219 220 220 216 214 215 215 215 213 209 216 223 233 242 252 251 252 250 248 247 239 245 254 259 259 254 239 224 224 224 222 227 229 235 238 234 235 231 224 223
207 205 209 211 215 219 219 222 227 229 227 230 228 228 233 228 220 220 228 234 239 245 252 260 263 261 257 255 257 249 252 259 261 252 246 229 219 221 221 224 228 234 241 242 241 241 240 237 234
221 226 228 232 232 229 230 229 232 235 234 235 238 240 242 238 235 234 240 243 249 251 253 258 260 260 252 251 254 249 251 256 255 251 241 233 227 220 219 227 231 236 243 249 245 245 242 242 241
234 236 236 240 243 240 237 232 233 236 238 240 244 242 242 242 243 242 243 245 248 251 252 259 259 252 245 245 244 244 251 256 252 244 245 239 233 227 228 235 238 240 240 243 248 248 246 244 241
238 238 236 237 241 242 241 239 239 242 245 245 247 246 246 245 246 245 245 246 249 253 254 262 261 255 253 251 246 247 251 251 248 235 237 237 237 237 238 242 242 243 242 241 244 245 244 243 239
242 241 238 237 241 242 243 243 243 245 245 246 247 248 248 246 246 245 244 245 248 253 257 264 266 258 255 255 253 252 251 244 246 246 243 237 239 241 242 242 246 246 243 244 248 250 247 245 241
244 241 238 239 242 242 243 243 245 248 250 250 251 251 246 246 246 246 245 245 246 251 255 257 262 262 259 258 261 265 262 257 253 254 252 244 241 241 242 245 249 249 249 249 252 252 250 247 245
244 240 239 241 242 243 243 243 246 249 251 251 251 248 246 246 246 245 245 245 248 251 254 257 257 261 263 262 262 265 264 262 259 255 255 255 250 250 247 245 247 250 252 251 250 247 248 248 246
246 242 241 242 243 244 245 243 245 247 249 250 248 246 247 247 246 244 245 246 249 252 254 257 257 260 263 263 262 263 261 259 258 256 256 254 251 255 253 251 251 253 255 256 253 252 250 248 248
248 245 244 243 242 241 244 244 243 246 246 248 248 247 247 247 247 245 245 246 248 251 254 256 259 262 264 265 263 262 263 262 256 254 254 254 254 257 257 254 253 255 256 259 259 258 257 253 251
246 244 243 243 241 240 241 244 242 242 246 246 248 247 248 246 247 248 247 246 249 251 255 256 258 258 262 266 265 262 260 256 256 255 256 256 257 258 259 258 259 259 260 260 258 259 261 256 253
244 243 243 244 243 241 242 243 243 241 244 244 246 246 244 244 246 249 252 253 251 252 255 257 258 258 261 266 265 264 262 259 259 261 260 261 262 261 260 262 263 261 261 262 260 256 257 254 252
246 244 244 244 241 240 242 245 244 243 243 246 245 243 240 243 247 250 253 254 253 253 254 257 259 262 262 264 266 264 264 262 262 261 260 263 260 259 262 263 262 261 262 262 260 255 254 255 255
247 247 246 244 240 239 243 245 247 247 247 249 248 244 243 242 247 251 254 255 252 251 253 257 259 263 263 264 265 264 265 263 262 262 262 263 262 261 262 262 264 264 263 262 259 253 253 254 255
247 248 248 245 240 237 239 242 245 246 247 248 250 250 248 248 249 252 255 255 255 256 256 261 263 265 265 265 267 268 267 265 263 263 261 261 261 263 262 262 264 262 260 263 261 255 254 253 253
248 249 249 246 241 237 238 241 247 248 248 248 249 252 254 257 257 257 257 257 258 259 259 262 266 268 267 265 265 265 267 265 264 262 260 259 260 262 261 259 261 262 262 262 262 257 256 255 253
249 249 248 247 242 239 240 241 245 248 250 250 252 255 257 257 258 258 256 257 259 260 261 263 266 267 268 264 262 262 262 262 263 261 259 257 260 261 260 257 260 262 262 260 261 261 261 260 255
251 251 251 248 243 241 241 244 244 246 249 250 253 256 255 255 258 259 258 259 261 264 265 266 268 267 266 265 263 260 260 261 262 260 258 258 259 261 260 258 258 258 260 262 263 264 263 263 259
252 250 248 248 247 245 244 245 245 247 249 250 254 255 254 253 257 261 262 261 263 265 269 269 268 269 269 265 260 260 260 261 260 260 259 259 260 261 261 259 259 259 260 262 264 265 265 264 260
251 249 247 247 247 247 246 244 244 247 251 252 254 254 253 255 257 260 263 264 263 266 269 271 271 271 269 266 262 261 262 261 260 260 260 260 261 260 260 261 261 263 263 262 263 263 263 262 260
252 252 250 249 247 247 246 248 246 248 250 251 250 249 252 255 259 263 264 265 265 266 268 270 271 272 272 270 268 268 266 264 262 261 261 260 259 260 262 262 264 266 266 263 262 263 263 262 262
251 252 252 251 251 250 247 251 249 248 250 250 249 248 252 257 261 265 266 266 267 267 270 271 272 274 275 273 270 270 270 268 266 265 264 262 261 260 262 262 263 265 265 264 262 263 262 262 263
253 254 254 254 254 252 249 252 251 246 247 250 248 249 253 258 264 267 268 269 270 270 271 272 275 275 277 275 274 272 271 270 265 266 265 262 261 259 260 261 263 265 266 265 262 262 262 262 263
253 254 255 256 257 257 255 255 253 250 249 250 251 253 256 260 265 269 270 270 273 273 272 273 274 276 278 279 276 273 271 270 266 265 266 262 259 259 259 260 263 264 266 265 263 263 261 261 262
253 255 253 257 259 262 259 257 256 255 252 253 255 256 258 261 264 268 271 274 275 275 274 273 274 275 277 278 277 274 271 271 268 267 265 263 260 259 259 261 263 265 267 265 264 263 262 260 261
251 253 260 260 261 261 260 260 262 258 257 258 259 261 262 264 265 268 272 275 277 276 275 274 273 274 276 276 275 273 273 271 269 267 265 264 263 259 260 262 264 266 267 265 264 263 263 262 261
252 255 261 260 263 263 263 264 269 265 261 261 261 262 265 266 268 270 273 274 275 276 275 273 273 274 274 274 275 274 273 271 267 267 266 263 262 262 262 264 265 267 266 265 264 264 264 265 263
258 262 263 263 264 266 266 267 270 269 263 261 261 262 263 265 266 270 273 273 273 275 275 275 273 273 273 273 273 273 271 270 269 267 266 264 264 265 265 265 267 268 267 266 265 266 265 265 264
265 268 269 269 268 268 267 266 269 268 264 263 264 264 264 266 267 269 271 272 273 275 275 275 275 273 273 272 272 272 270 270 269 268 266 265 266 265 266 267 268 269 269 268 267 267 266 265 263
Height
5869 5870 5871 5873 5874 5875 5874 5875 5875 5875 5875 5875 5875 5876 5876 5876 5877 5879 5877 5875 5875 5875 5874 5874 5873 5873 5872 5872 5872 5872 5872 5872 5872 5871 5871 5870 5870 5871 5871 5872 5872 5872 5873 5873 5873 5873 5873 5874 5874
5869 5870 5872 5873 5873 5873 5874 5874 5874 5874 5875 5875 5875 5875 5875 5875 5875 5875 5875 5875 5874 5874 5873 5873 5872 5872 5871 5871 5871 5871 5871 5871 5871 5870 5869 5868 5868 5870 5870 5871 5872 5872 5872 5872 5873 5873 5873 5873 5873
5869 5870 5871 5872 5872 5873 5873 5873 5873 5873 5873 5874 5874 5874 5875 5875 5874 5874 5874 5874 5873 5873 5873 5872 5871 5870 5870 5870 5870 5870 5870 5870 5870 5869 5868 5867 5868 5869 5870 5871 5871 5871 5871 5872 5872 5872 5872 5872 5872
5868 5870 5871 5871 5871 5871 5871 5872 5872 5872 5872 5873 5873 5873 5873 5874 5873 5873 5873 5873 5873 5872 5872 5871 5870 5870 5869 5869 5869 5869 5869 5869 5869 5869 5868 5868 5868 5869 5869 5870 5870 5870 5871 5871 5871 5871 5871 5871 5872
5867 5868 5869 5869 5869 5870 5870 5870 5870 5871 5871 5871 5872 5872 5872 5872 5872 5872 5872 5872 5871 5871 5871 5870 5870 5869 5869 5868 5868 5868 5868 5868 5868 5868 5868 5868 5868 5868 5869 5869 5869 5869 5870 5870 5870 5870 5870 5870 5870
5866 5867 5868 5868 5868 5868 5868 5869 5869 5869 5869 5870 5870 5870 5870 5870 5870 5871 5871 5871 5870 5870 5870 5869 5869 5869 5868 5867 5867 5867 5867 5867 5867 5866 5867 5867 5867 5867 5867 5868 5868 5868 5868 5868 5868 5868 5868 5869 5869
5864 5865 5865 5866 5866 5867 5867 5867 5867 5867 5867 5868 5868 5868 5868 5869 5869 5869 5869 5869 5869 5869 5869 5868 5868 5868 5867 5867 5866 5866 5865 5866 5866 5866 5866 5866 5866 5866 5866 5867 5867 5867 5867 5867 5867 5867 5867 5867 5867
5862 5863 5863 5864 5864 5864 5865 5865 5865 5865 5865 5866 5866 5867 5867 5867 5867 5867 5867 5868 5868 5868 5867 5867 5867 5867 5866 5866 5865 5865 5865 5865 5864 5864 5864 5864 5864 5865 5865 5865 5865 5865 5865 5865 5865 5865 5865 5865 5865
5859 5861 5861 5861 5862 5862 5862 5863 5863 5863 5863 5864 5864 5864 5864 5865 5865 5865 5866 5866 5866 5866 5866 5866 5866 5865 5865 5865 5864 5864 5864 5864 5863 5863 5863 5863 5863 5863 5863 5863 5863 5863 5863 5863 5863 5863 5863 5863 5863
5857 5858 5858 5859 5859 5859 5860 5860 5860 5861 5861 5861 5862 5862 5862 5862 5863 5863 5863 5864 5864 5864 5864 5864 5864 5864 5863 5863 5862 5862 5862 5862 5862 5862 5861 5861 5861 5861 5861 5861 5861 5861 5861 5861 5861 5861 5861 5861 5861
5853 5855 5855 5855 5856 5856 5857 5858 5858 5858 5859 5859 5859 5859 5860 5860 5860 5861 5861 5861 5862 5862 5862 5862 5862 5862 5862 5861 5861 5860 5860 5860 5860 5860 5860 5860 5859 5859 5859 5859 5859 5859 5859 5859 5859 5859 5859 5859 5859
5851 5851 5852 5853 5853 5854 5854 5855 5856 5856 5857 5857 5856 5857 5857 5858 5858 5858 5859 5859 5860 5860 5860 5860 5860 5860 5860 5860 5859 5859 5858 5858 5858 5858 5858 5858 5858 5857 5857 5857 5857 5857 5857 5857 5857 5857 5856 5856 5856
5847 5848 5849 5850 5850 5851 5852 5852 5853 5853 5854 5854 5854 5855 5855 5855 5856 5856 5856 5857 5857 5858 5858 5858 5858 5858 5858 5858 5857 5856 5856 5856 5856 5856 5856 5856 5856 5855 5855 5855 5855 5855 5855 5854 5854 5854 5854 5854 5854
5844 5845 5846 5847 5848 5848 5849 5850 5851 5851 5851 5852 5852 5852 5853 5853 5854 5854 5854 5854 5855 5855 5855 5855 5856 5856 5855 5855 5855 5854 5854 5854 5854 5854 5854 5854 5854 5854 5853 5853 5853 5852 5852 5852 5852 5852 5851 5852 5852
5841 5842 5843 5844 5845 5845 5847 5848 5848 5849 5849 5849 5850 5850 5851 5851 5851 5851 5852 5852 5852 5852 5853 5853 5853 5853 5853 5853 5852 5852 5852 5852 5852 5851 5851 5851 5851 5851 5851 5851 5850 5850 5850 5849 5849 5849 5849 5849 5849
5838 5839 5840 5841 5842 5843 5845 5846 5846 5846 5846 5847 5847 5848 5848 5849 5849 5849 5849 5850 5850 5850 5850 5850 5850 5850 5850 5850 5850 5849 5849 5849 5849 5849 5849 5849 5849 5849 5848 5848 5848 5847 5847 5847 5847 5847 5847 5847 5847
5835 5836 5837 5838 5839 5840 5841 5843 5843 5843 5843 5844 5845 5845 5846 5846 5846 5847 5847 5847 5847 5847 5848 5848 5848 5848 5847 5847 5847 5847 5846 5846 5846 5846 5846 5846 5846 5846 5845 5845 5845 5845 5845 5845 5845 5844 5845 5845 5844
5833 5833 5834 5835 5836 5837 5838 5839 5840 5840 5841 5842 5842 5843 5843 5844 5844 5844 5844 5844 5845 5845 5845 5845 5844 5844 5844 5844 5844 5843 5843 5843 5843 5843 5843 5843 5843 5843 5843 5843 5843 5842 5842 5842 5842 5842 5842 5842 5842
5829 5829 5831 5832 5832 5833 5834 5836 5837 5838 5838 5839 5839 5840 5840 5841 5841 5841 5841 5842 5842 5842 5842 5842 5841 5841 5841 5840 5840 5840 5840 5840 5840 5840 5840 5840 5840 5839 5839 5839 5840 5840 5840 5839 5839 5839 5839 5839 5838
5826 5826 5827 5828 5829 5830 5831 5833 5834 5834 5835 5836 5836 5837 5837 5838 5838 5838 5838 5838 5838 5838 5838 5838 5838 5838 5837 5837 5837 5836 5836 5836 5836 5836 5836 5836 5836 5836 5836 5836 5836 5836 5836 5836 5836 5836 5835 5836 5835
5822 5823 5824 5825 5826 5827 5828 5830 5830 5831 5831 5832 5833 5833 5834 5835 5835 5835 5835 5835 5835 5835 5835 5835 5834 5834 5834 5833 5833 5833 5832 5832 5832 5832 5832 5832 5832 5832 5832 5832 5832 5833 5832 5832 5832 5832 5832 5832 5832
5819 5820 5821 5822 5823 5824 5826 5826 5827 5827 5828 5829 5830 5830 5831 5831 5831 5831 5831 5832 5832 5832 5831 5831 5831 5830 5830 5829 5829 5829 5829 5829 5828 5828 5828 5828 5828 5828 5828 5828 5828 5828 5828 5828 5828 5828 5828 5828 5828
5816 5817 5818 5819 5819 5821 5822 5823 5825 5824 5825 5826 5826 5827 5827 5827 5828 5828 5828 5828 5828 5828 5828 5827 5827 5826 5826 5825 5825 5824 5824 5824 5824 5824 5824 5823 5823 5823 5823 5823 5823 5823 5823 5823 5823 5823 5823 5823 5824
5813 5814 5815 5815 5816 5817 5818 5819 5820 5821 5822 5822 5823 5823 5823 5824 5824 5824 5824 5824 5824 5824 5823 5823 5822 5822 5821 5821 5820 5820 5819 5819 5819 5819 5819 5818 5818 5818 5818 5818 5818 5818 5818 5818 5818 5818 5819 5819 5819
5810 5812 5813 5812 5813 5814 5814 5815 5816 5817 5818 5818 5819 5819 5819 5820 5820 5820 5820 5820 5820 5819 5819 5818 5818 5817 5817 5816 5815 5814 5814 5814 5814 5813 5813 5813 5813 5813 5813 5813 5813 5813 5813 5813 5813 5813 5813 5813 5814
5807 5809 5810 5811 5811 5811 5810 5811 5813 5813 5814 5814 5814 5815 5815 5815 5816 5816 5816 5816 5815 5815 5814 5813 5813 5812 5812 5811 5810 5809 5809 5809 5808 5808 5808 5808 5808 5808 5808 5808 5808 5808 5808 5808 5808 5808 5808 5808 5808
5804 5805 5806 5807 5807 5807 5807 5808 5808 5809 5809 5810 5810 5810 5810 5811 5811 5811 5811 5811 5810 5810 5809 5808 5807 5807 5806 5806 5805 5804 5804 5803 5803 5802 5802 5802 5802 5802 5802 5802 5802 5802 5802 5802 5802 5802 5802 5802 5802
5801 5801 5802 5802 5802 5803 5803 5804 5805 5804 5805 5805 5805 5806 5806 5806 5806 5806 5806 5806 5805 5804 5803 5802 5802 5801 5801 5800 5799 5799 5798 5797 5797 5797 5796 5796 5797 5797 5797 5797 5796 5796 5796 5796 5796 5796 5796 5796 5796
5797 5798 5798 5798 5799 5799 5800 5802 5800 5800 5800 5801 5801 5801 5801 5801 5801 5801 5801 5800 5800 5799 5798 5797 5796 5796 5795 5794 5793 5793 5792 5792 5791 5791 5791 5791 5791 5791 5790 5790 5790 5790 5790 5790 5789 5790 5790 5790 5790
5793 5794 5794 5795 5794 5794 5795 5798 5795 5795 5795 5796 5796 5796 5796 5796 5796 5796 5795 5795 5794 5793 5792 5791 5790 5790 5789 5788 5788 5787 5786 5786 5785 5785 5785 5785 5785 5784 5784 5784 5784 5784 5783 5783 5783 5783 5783 5783 5783